STARLINK-36315, 67731

Orbit data source: Space-Track

STARLINK-36315, 67731 is a payload satellite owned by SpaceX/Seattle (US) in SSO that was launched on Wed, 11 Feb 2026 UTC via an FALCON 9 launch vehicle from the Air Force Western Test Range (AFWTR). Payload-class satellites include a variety of spacecraft equipped with specific instruments for various scientific and technological missions. These include communications satellites like Starlink; space stations such as the ISS; scientific satellites like the Hubble; Earth observation satellites from companies like Planet Labs, Umbra, and HawkEye 360; GPS; miniature CubeSats for education and research; and military/defense satellites.

Loading next visibility...
Identifier
67731, 2026-026L
Orbit
SSO
Country
Flag of USUS
Related business
Manufacturer
SpaceX/Seattle
Mission
Operational Commercial Communications
Bus & Motor
STARLINK V2MO, Unknown motor
Mass
575 kg wet, ~530 kg dry
Launch date (UTC)
2026-02-11 (3 months ago)
Launch vehicle
FALCON 9
Launch site
Air Force Western Test Range (AFWTR)
Object type
Payload
Rocket body
Debris
Shape & HBR
Box + 2 Pan, 17.7 m
Radar Cross Section
36.964 m²

Expand to show TLE details & history
Last TLE update: 8 hours ago

TLE from 8 hours ago
0 STARLINK-36315
1 67731U 26026L   26130.14238559  .00008713  00000-0  27188-3 0  9997
2 67731  97.2847 183.8775 0000728  91.4374 268.6952 15.33447481 13548
Epoch: 2026-05-10T03:25Z
TLE epoch observation values (Epoch: 2026-05-10T03:25:02.114Z)
Latitude
-0.00007°
Longitude
-95.33101°
Altitude
468.659 km
Speed
7.632 km/s
True Right ascension
12h 15m 30s
True Declination
0° 00' 00"
Sunlit
Object was in full shadow at epoch
Visualization orbit readout
Latitude
Unknown
Longitude
Unknown
Altitude
Unknown
Speed
Unknown
Apparent Right ascension
Unknown
Apparent Declination
Unknown
Sunlit
N/A
Visualization observer readout
Local Sidereal Time
19:48:54
Azimuth
Unknown
Elevation
Unknown
Doppler factor
Unknown
Orbital elements
Apogee altitude
462.977 km
Perigee altitude
461.981 km
Semi-major axis
6,840.616 km
Eccentricity
0.00007
Inclination
97.2847°
RAAN
183.8775°
Arg. of periapsis
91.4374°
True anomaly
268.68686°
Mean anomaly
268.6952°
Eccentric anomaly
268.69103°
Mean motion
3.83619 °/min
Orbital period
93.84 mins
BSTAR
0.00027188
Loading maneuver chart data...
Computing Atmospheric mass density...
Loading historical data...
Loading historical data...
Loading historical data...
Loading historical data...
Loading historical data...
Loading historical data...
Loading historical data...

Documentation

Showing up to 5 results
|